sat.trackr.live / text

‹ back to catalog

ZORKY-2M 7

NORAD 67268 · 2025-313W

PAYLOAD ACTIVE UNKNOWN

§ Identity

Operator
Country
CIS
Launch date
2025-12-28
Launch site
VOSTO
Launch vehicle
Mass (kg)
RCS (m²)

External: N2YO · Heavens-Above · Gunter

§ Orbital elements

Epoch: 2026-09-20T22:36:56.389248Z

Period
94.51 min
Inclination
97.3869°
Eccentricity
0.0015105
Mean motion
15.23670914 rev/d
Perigee alt
484.4 km
Apogee alt
505.2 km
Semi-major
6,872.9 km
B*
1.7103e-4
RAAN
337.0684°
Arg perigee
33.6942°
Mean anomaly
326.5253°
Rev number
4,052

§ Raw data

ZORKY-2M 71 67268U 25313W   26263.94231932  .00004043  00000+0  17103-3 0  99902 67268  97.3869 337.0684 0015105  33.6942 326.5253 15.23670914 40528

JSON: /api/v1/satellites/67268 · /tle

For live sub-satellite position, see the globe view (requires WebGL).

§ Visibility from observer

Set your observer location to see the next 7 days of passes ≥ 10°. The values pass through the URL so the page stays shareable.

No JS? Fill the form by hand. The geolocation button needs JavaScript.